Location: Étang Rond
(42.7927°N, 1.0661°E)
Time: 00:49:00
(UTC+00:00)

USA 234 - Pass Details

Date: 08 November 2025
Orbit: 1100 x 1107 km, 123.0° (Epoch: 02 December)

Event Time Altitude Azimuth Distance (km) Brightness Sun altitude
Rises 03:48:30 0° 121° (ESE) 3,918 6.9 -31.4°
Reaches altitude 10° 03:50:58 10° 120° (ESE) 2,961 6.1 -31.0°
Maximum altitude 03:57:29 74° 37° (NE) 1,150 3.3 -29.8°
Enters shadow 03:58:53 57° 334° (NNW) 1,290 3.4 -29.6°
